GW3775 Weather Reports


time (UTC)temp
F
wind
direction
speed
knots
gust
knots
rain 1hr
in
rain 24hr
in
rain mn
in
humidity
%
barometer
mb
20260507013550 52 19 0.9 3.5 0.00 0.03 0.00 91 1014.1
20260507013050 52 79 0.0 5.2 0.00 0.03 0.00 91 1014.1
20260507012550 52 100 1.7 5.2 0.00 0.03 0.00 91 1014.1
20260507012224 52 294 0.9 3.5 0.00 0.03 0.00 91 1013.9
20260507005551 53 34 1.7 5.2 0.00 0.03 0.00 91 1014.2
20260507005055 53 16 2.6 5.2 0.00 0.03 0.00 91 1014.1
20260507004556 53 323 0.9 4.3 0.00 0.03 0.00 92 1014.1
20260507004048 53 251 0.9 4.3 0.00 0.03 0.00 92 1014.2
20260507003552 53 50 0.9 2.6 0.00 0.03 0.00 92 1014.3
20260507003056 53 133 0.9 3.5 0.00 0.03 0.00 91 1014.2
20260507002548 53 351 0.0 3.5 0.00 0.03 0.00 91 1014.3
20260507002051 53 240 0.9 2.6 0.00 0.03 0.00 91 1014.3
20260507001613 53 205 0.9 3.5 0.00 0.03 0.00 91 1014.4
20260507001051 53 303 0.9 3.5 0.00 0.03 0.00 91 1014.4
20260507000551 53 299 1.7 4.3 0.00 0.03 0.00 91 1014.5
20260507000059 53 351 1.7 5.2 0.00 0.03 0.00 90 1014.7
20260506235549 53 305 2.6 5.2 0.00 0.03 0.00 91 1014.5
20260506235052 54 271 1.7 4.3 0.00 0.03 0.00 91 1014.6
20260506234602 54 341 0.0 2.6 0.00 0.03 0.00 91 1014.7
20260506234048 54 295 0.9 2.6 0.00 0.03 0.00 91 1014.6
20260506233652 54 287 0.0 3.5 0.00 0.03 0.00 91 1014.7
20260506232048 54 4 0.9 3.5 0.00 0.03 0.00 91 1014.7
20260506231558 54 205 0.9 1.7 0.00 0.03 0.00 91 1014.8
20260506231048 54 0 0.0 1.7 0.00 0.03 0.00 90 1014.7
20260506230550 54 0 0.0 1.7 0.00 0.03 0.00 90 1014.8
20260506230058 54 343 0.0 2.6 0.00 0.03 0.00 90 1014.6
20260506225550 54 0 0.9 2.6 0.00 0.03 0.00 90 1014.6
20260506225048 54 278 0.0 2.6 0.00 0.03 0.00 90 1014.7
20260506224552 54 29 0.9 3.5 0.00 0.03 0.00 90 1014.9
20260506224048 54 12 0.9 3.5 0.00 0.03 0.00 89 1015.0
20260506223551 54 34 0.9 3.5 0.00 0.03 0.00 89 1014.9
20260506223055 54 25 0.9 2.6 0.00 0.03 0.00 89 1015.1
20260506222549 54 41 0.0 2.6 0.00 0.03 0.00 89 1014.9
20260506222052 54 75 0.0 3.5 0.00 0.03 0.00 89 1014.9
20260506221602 54 74 0.9 5.2 0.00 0.03 0.00 88 1014.9
20260506221049 54 152 0.9 5.2 0.00 0.03 0.00 88 1014.8
20260506220549 55 270 2.6 4.3 0.00 0.03 0.00 87 1014.7
20260506220107 55 332 1.7 4.3 0.00 0.03 0.00 87 1014.9
20260506215548 55 36 0.9 4.3 0.00 0.03 0.03 86 1014.9
20260506215049 55 100 0.9 4.3 0.00 0.03 0.03 86 1014.9
20260506214557 55 78 0.0 3.5 0.00 0.03 0.03 86 1014.9
20260506214049 55 43 0.0 1.7 0.00 0.03 0.03 86 1014.8
20260506213550 55 162 0.0 1.7 0.00 0.03 0.03 86 1014.7
20260506213106 55 0 0.0 0.9 0.00 0.03 0.03 86 1014.9
20260506212549 55 0 0.0 2.6 0.00 0.03 0.03 86 1015.1
20260506212052 55 69 0.0 4.3 0.00 0.03 0.03 86 1015.1
20260506211557 55 61 0.0 4.3 0.00 0.03 0.03 86 1014.9
20260506211049 55 86 0.9 4.3 0.00 0.03 0.03 86 1014.9
20260506210551 55 69 0.9 2.6 0.00 0.03 0.03 86 1014.7
20260506210100 55 54 0.0 1.7 0.00 0.03 0.03 86 1014.6
20260506205549 55 0 0.0 1.7 0.00 0.03 0.03 86 1014.7
20260506205051 55 71 0.9 2.6 0.00 0.03 0.03 85 1014.6
20260506204555 55 0 0.0 3.5 0.00 0.03 0.03 85 1014.6
20260506204051 55 87 0.0 3.5 0.00 0.03 0.03 85 1014.4
20260506203549 55 29 1.7 3.5 0.00 0.03 0.03 85 1014.1
20260506203139 55 69 0.0 3.5 0.00 0.03 0.03 85 1014.1
20260506202552 55 69 0.9 3.5 0.00 0.03 0.03 84 1014.2
20260506202049 55 80 0.0 2.6 0.00 0.03 0.03 85 1014.3
20260506201653 55 0 0.0 2.6 0.00 0.03 0.03 84 1014.3
20260506200056 56 82 0.9 2.6 0.00 0.03 0.03 85 1013.8
20260506195548 55 36 0.9 2.6 0.00 0.03 0.03 85 1013.8
20260506195049 56 87 0.9 2.6 0.00 0.03 0.03 86 1013.9
20260506194555 56 61 0.0 2.6 0.00 0.03 0.03 86 1013.7
20260506194050 56 0 0.9 2.6 0.00 0.03 0.03 87 1013.7
20260506193552 56 69 0.9 2.6 0.00 0.03 0.03 87 1013.6
20260506193056 56 64 0.9 1.7 0.00 0.03 0.03 88 1013.4
20260506192549 56 127 0.0 1.7 0.00 0.03 0.03 88 1013.5
20260506192051 56 0 0.0 2.6 0.00 0.03 0.03 88 1013.4
20260506191559 56 103 0.9 2.6 0.00 0.03 0.03 88 1013.3
20260506191052 56 0 0.0 1.7 0.00 0.03 0.03 88 1013.4
20260506190549 56 317 0.0 3.5 0.00 0.03 0.03 88 1013.3
20260506190056 56 313 0.9 3.5 0.00 0.03 0.03 87 1013.4
20260506185552 56 0 0.0 5.2 0.00 0.03 0.03 88 1013.4
20260506185049 56 285 2.6 5.2 0.00 0.03 0.03 87 1013.4
20260506184601 56 299 1.7 3.5 0.00 0.03 0.03 87 1013.3
20260506184052 57 150 0.9 2.6 0.00 0.03 0.03 87 1013.3
20260506183549 57 244 0.0 2.6 0.00 0.03 0.03 87 1013.1
20260506183101 57 154 0.0 2.6 0.00 0.03 0.03 86 1013.0
20260506182548 57 81 0.0 2.6 0.00 0.03 0.03 86 1013.0
20260506182048 57 22 0.9 2.6 0.00 0.03 0.03 85 1013.1
20260506181600 57 38 1.7 3.5 0.00 0.03 0.03 85 1013.0
20260506181049 57 48 0.9 3.5 0.00 0.03 0.03 84 1013.1
20260506180552 57 0 0.0 4.3 0.00 0.03 0.03 84 1012.8
20260506180054 57 308 1.7 5.2 0.00 0.03 0.03 83 1013.0
20260506175548 57 314 2.6 7.0 0.00 0.03 0.03 83 1012.8
20260506175052 57 287 2.6 7.0 0.00 0.03 0.03 83 1012.8
20260506174605 57 293 3.5 7.0 0.00 0.03 0.03 83 1012.9
20260506174052 57 323 2.6 5.2 0.00 0.03 0.03 84 1013.0
20260506173549 57 309 1.7 7.8 0.00 0.03 0.03 83 1012.9
20260506173057 57 142 2.6 7.8 0.00 0.03 0.03 83 1012.9
20260506172551 57 304 3.5 7.8 0.01 0.03 0.03 82 1013.0
20260506172048 57 292 1.7 9.6 0.02 0.03 0.03 83 1012.9
20260506171611 57 327 1.7 9.6 0.03 0.03 0.03 86 1012.9
20260506171052 57 339 4.3 9.6 0.03 0.03 0.03 85 1013.1
20260506170553 57 288 4.3 13.0 0.03 0.03 0.03 85 1012.7
20260506170104 57 301 6.1 13.0 0.03 0.03 0.03 85 1012.9
20260506170037 57 289 7.0 13.0 0.03 0.03 0.03 86 1012.9
20260506165049 57 297 4.3 9.6 0.03 0.03 0.03 86 1012.9
20260506164559 57 62 3.5 9.6 0.03 0.03 0.03 86 1012.8
20260506164048 56 306 4.3 11.3 0.03 0.03 0.03 86 1012.8
20260506163548 56 313 6.1 11.3 0.02 0.02 0.02 86 1012.7
20260506163131 57 197 4.3 11.3 0.02 0.02 0.02 85 1013.0
20260506162548 57 285 5.2 12.2 0.01 0.01 0.01 84 1012.7
20260506162053 58 288 7.8 13.9 0.00 0.00 0.00 81 1012.7
20260506161552 58 306 7.8 13.9 0.00 0.00 0.00 80 1012.5
20260506161048 59 314 6.1 13.9 0.00 0.00 0.00 78 1012.6
20260506160548 60 302 6.1 12.2 0.00 0.00 0.00 76 1012.5
20260506160051 61 294 7.0 11.3 0.00 0.00 0.00 73 1012.4
20260506155849 61 296 7.0 11.3 0.00 0.00 0.00 70 1012.4
20260506155049 62 30 4.3 9.6 0.00 0.00 0.00 66 1012.4
20260506154558 63 200 2.6 8.7 0.00 0.00 0.00 64 1012.3
20260506154053 64 285 3.5 11.3 0.00 0.00 0.00 63 1012.5
20260506153549 64 15 7.0 11.3 0.00 0.00 0.00 60 1012.4
20260506153121 65 11 5.2 10.4 0.00 0.00 0.00 59 1012.3
20260506152555 66 321 6.1 10.4 0.00 0.00 0.00 57 1012.2
20260506152049 67 349 6.1 10.4 0.00 0.00 0.00 56 1012.2
20260506151555 69 8 2.6 9.6 0.00 0.00 0.00 55 1012.2
20260506151048 68 114 3.5 9.6 0.00 0.00 0.00 55 1012.2
20260506150548 68 98 2.6 7.0 0.00 0.00 0.00 54 1012.2
20260506150055 68 74 2.6 7.0 0.00 0.00 0.00 53 1012.2
20260506145551 68 56 1.7 6.1 0.00 0.00 0.00 56 1012.2
20260506145050 68 47 2.6 6.1 0.00 0.00 0.00 55 1012.1
20260506144555 67 60 0.9 7.8 0.00 0.00 0.00 57 1012.0
20260506144049 67 93 2.6 7.8 0.00 0.00 0.00 56 1012.3
20260506143550 67 131 2.6 8.7 0.00 0.00 0.00 58 1012.6
20260506143053 67 20 4.3 8.7 0.00 0.00 0.00 59 1012.4
20260506142549 66 57 5.2 8.7 0.00 0.00 0.00 61 1012.4
20260506142048 66 88 3.5 7.8 0.00 0.00 0.00 62 1012.6
20260506141554 66 17 3.5 7.8 0.00 0.00 0.00 61 1012.8
20260506141049 66 350 1.7 6.1 0.00 0.00 0.00 59 1012.9
20260506140551 67 19 1.7 4.3 0.00 0.00 0.00 57 1012.9
20260506140053 67 30 0.9 8.7 0.00 0.00 0.00 56 1012.6
20260506135548 67 41 2.6 8.7 0.00 0.00 0.00 53 1012.7
20260506135048 68 9 2.6 8.7 0.00 0.00 0.00 54 1012.6
20260506134600 67 336 0.9 6.1 0.00 0.00 0.00 53 1012.8
20260506134048 66 11 0.9 6.1 0.00 0.00 0.00 53 1012.7
20260506133547 66 34 2.6 6.1 0.00 0.00 0.00 55 1012.9
20260506133056 66 64 3.5 6.1 0.00 0.00 0.00 55 1013.0
20260506132550 66 36 3.5 6.1 0.00 0.00 0.00 56 1013.1
20260506132049 66 19 2.6 6.1 0.00 0.00 0.00 55 1013.1
20260506131601 66 351 1.7 6.1 0.00 0.00 0.00 53 1013.1
20260506131049 66 48 2.6 6.1 0.00 0.00 0.00 53 1013.2
20260506130550 66 81 2.6 5.2 0.00 0.00 0.00 54 1013.1
20260506130548 67 29 2.6 4.3 0.00 0.00 0.00 53 1013.0
20260506125151 68 29 1.7 4.3 0.00 0.00 0.00 52 1013.3
20260506122549 68 121 0.0 3.5 0.00 0.00 0.00 50 1013.4
20260506122049 68 201 0.9 2.6 0.00 0.00 0.00 48 1013.4
20260506121608 68 156 0.0 4.3 0.00 0.00 0.00 48 1013.4
20260506121048 67 53 0.0 4.3 0.00 0.00 0.00 47 1013.6
20260506120550 67 84 0.9 4.3 0.00 0.00 0.00 49 1013.6
20260506120059 66 112 0.9 3.5 0.00 0.00 0.00 53 1013.7
20260506115549 65 35 0.0 4.3 0.00 0.00 0.00 55 1013.8
20260506115049 65 260 0.0 4.3 0.00 0.00 0.00 54 1013.8
20260506114557 66 329 1.7 5.2 0.00 0.00 0.00 55 1014.0
20260506114048 66 34 2.6 5.2 0.00 0.00 0.00 55 1014.0
20260506113548 66 56 0.0 4.3 0.00 0.00 0.00 55 1013.9
20260506113053 66 188 0.9 7.8 0.00 0.00 0.00 56 1014.1
20260506112548 66 0 0.9 7.8 0.00 0.00 0.00 58 1014.0
20260506112048 66 53 3.5 7.8 0.00 0.00 0.00 55 1014.1
20260506111548 66 301 0.0 4.3 0.00 0.00 0.00 55 1014.2
20260506111053 65 303 1.7 6.1 0.00 0.00 0.00 54 1014.0
20260506110548 65 351 2.6 14.8 0.00 0.00 0.00 58 1014.2
20260506105549 65 353 2.6 14.8 0.00 0.00 0.00 63 1014.3
20260506105049 65 251 1.7 6.1 0.00 0.00 0.00 63 1014.5
20260506104557 64 358 2.6 6.1 0.00 0.00 0.00 62 1014.4
20260506104048 63 171 2.6 10.4 0.00 0.00 0.00 63 1014.4
20260506103549 63 237 1.7 10.4 0.00 0.00 0.00 67 1014.3
20260506103056 62 308 2.6 7.0 0.00 0.00 0.00 67 1014.4
20260506102549 62 297 1.7 7.0 0.00 0.00 0.00 66 1014.5
20260506102049 62 287 2.6 7.0 0.00 0.00 0.00 66 1014.6
20260506101609 62 346 3.5 7.8 0.00 0.00 0.00 66 1014.5
20260506101049 62 315 2.6 7.8 0.00 0.00 0.00 65 1014.6
20260506100549 62 303 2.6 7.8 0.00 0.00 0.00 65 1014.5
20260506100050 62 285 1.7 7.8 0.00 0.00 0.00 66 1014.6
20260506095548 61 164 2.6 8.7 0.00 0.00 0.00 68 1014.6
20260506095049 61 296 2.6 8.7 0.00 0.00 0.00 69 1014.7
20260506094557 61 54 4.3 8.7 0.00 0.00 0.00 70 1014.6
20260506094048 61 101 3.5 9.6 0.00 0.00 0.00 69 1014.7
20260506093552 61 161 3.5 9.6 0.00 0.00 0.00 73 1014.6
20260506093058 61 300 3.5 7.0 0.00 0.00 0.00 71 1014.5
20260506092549 61 296 2.6 6.1 0.00 0.00 0.00 70 1014.5
20260506092050 61 19 1.7 7.0 0.00 0.00 0.00 71 1014.4
20260506091552 61 61 2.6 7.0 0.00 0.00 0.00 72 1014.5
20260506091053 60 355 2.6 7.8 0.00 0.00 0.00 73 1014.3
20260506090548 60 306 2.6 7.8 0.00 0.00 0.00 72 1014.4
20260506085548 59 239 2.6 7.0 0.00 0.00 0.00 75 1014.3
20260506085049 59 301 1.7 6.1 0.00 0.00 0.00 75 1014.3
20260506084557 59 45 1.7 7.0 0.00 0.00 0.00 77 1014.3
20260506084049 58 10 2.6 7.0 0.00 0.00 0.00 77 1014.2
20260506083548 58 33 2.6 6.1 0.00 0.00 0.00 77 1014.3
20260506083053 58 158 1.7 7.0 0.00 0.00 0.00 78 1014.3
20260506082548 58 55 1.7 7.0 0.00 0.00 0.00 79 1014.3
20260506082047 57 109 1.7 6.1 0.00 0.00 0.00 79 1014.4
20260506081603 57 17 1.7 7.8 0.00 0.00 0.00 81 1014.3
20260506081054 57 315 2.6 7.8 0.00 0.00 0.00 81 1014.3
20260506080549 57 35 0.9 7.0 0.00 0.00 0.00 82 1014.3
20260506073054 56 8 0.9 7.0 0.00 0.00 0.00 84 1014.2
20260506072548 56 168 1.7 7.0 0.00 0.00 0.00 85 1014.3
20260506072050 55 37 0.9 6.1 0.00 0.00 0.00 85 1014.1
20260506071552 55 11 0.9 4.3 0.00 0.00 0.00 86 1014.1
20260506071048 55 318 2.6 4.3 0.00 0.00 0.00 85 1014.1
20260506070549 55 62 0.9 6.1 0.00 0.00 0.00 87 1014.1
20260506062050 51 0 0.0 0.0 0.00 0.00 0.00 92 1014.3
20260506061744 50 0 0.0 0.0 0.00 0.00 0.00 91 1014.2
20260506061048 50 0 0.0 0.9 0.00 0.00 0.00 92 1014.2
20260506060549 50 0 0.0 0.9 0.00 0.00 0.00 91 1014.3
20260506051051 50 195 2.6 5.2 0.00 0.00 0.00 90 1013.8
20260506050549 50 182 1.7 3.5 0.00 0.00 0.00 91 1013.6
20260506050115 50 172 0.0 2.6 0.00 0.00 0.00 90 1013.8
20260506043054 50 195 1.7 4.3 0.00 0.00 0.00 92 1013.8
20260506042549 50 157 1.7 4.3 0.00 0.00 0.00 92 1013.6
20260506042050 50 178 0.9 4.3 0.00 0.00 0.00 92 1013.8
20260506041603 49 228 0.9 3.5 0.00 0.00 0.00 92 1013.6
20260506041048 49 169 0.0 3.5 0.00 0.00 0.00 93 1013.7
20260506040549 49 209 0.0 4.3 0.00 0.00 0.00 93 1013.8
20260506040057 49 209 0.9 4.3 0.00 0.00 0.00 93 1013.7
20260506035547 49 183 0.9 3.5 0.00 0.00 0.00 94 1013.7
20260506035049 48 199 0.9 2.6 0.00 0.00 0.00 94 1013.7
20260506034555 48 183 0.9 1.7 0.00 0.00 0.00 93 1013.7
20260506034049 47 183 0.0 1.7 0.00 0.00 0.00 93 1013.7
20260506033611 47 0 0.0 1.7 0.00 0.00 0.00 93 1013.7
20260506033050 47 0 0.0 0.9 0.00 0.00 0.00 93 1013.7
20260506032548 46 0 0.0 0.0 0.00 0.00 0.00 92 1013.8
20260506032049 47 0 0.0 0.0 0.00 0.00 0.00 92 1013.7
20260506031552 47 0 0.0 0.0 0.00 0.00 0.00 93 1013.8
20260506031048 46 0 0.0 0.0 0.00 0.00 0.00 92 1013.9
20260506030546 47 0 0.0 0.9 0.00 0.00 0.00 92 1013.8
20260506030051 47 0 0.0 0.9 0.00 0.00 0.00 92 1013.8
20260506025550 47 0 0.0 0.9 0.00 0.00 0.00 92 1013.9
20260506025307 47 0 0.0 0.0 0.00 0.00 0.00 91 1013.9
20260506023109 48 0 0.0 0.0 0.00 0.00 0.00 91 1013.6
20260506022549 48 0 0.0 0.0 0.00 0.00 0.00 90 1013.8
20260506022053 49 0 0.0 0.0 0.00 0.00 0.00 90 1013.8
20260506021552 49 0 0.0 0.9 0.00 0.00 0.00 91 1013.9
20260506021049 49 0 0.0 0.9 0.00 0.00 0.00 90 1013.6
20260506020701 50 0 0.0 0.0 0.00 0.00 0.00 90 1013.8
20260506015553 51 0 0.0 2.6 0.00 0.00 0.00 90 1013.9
20260506015051 51 0 0.0 2.6 0.00 0.00 0.00 91 1013.8
20260506014559 51 219 0.9 2.6 0.00 0.00 0.00 91 1013.8
20260506014051 50 0 0.0 0.0 0.00 0.00 0.00 90 1014.0